[[{"header":{"parameterUnit":"m.s-1","parameterCategory":1,"la1":30.2991,"la2":30.254,"lo1":-89.0895,"lo2":-89.0444,"dy":0.0017,"dx":0.0017,"nx":28,"ny":28,"refTime":"2023-07-21T09:00:00:Z","depth":0,"parameterNumber":2,"parameterNumberName":"U-component_of_WINDS"},"data":[0,0,0,0,0,0,0,0,0,0,0,0,0,0,0,0,0,0,0,0,0,0,0,0,0,0,0,0,0,0,0,0,0,0,0,0,0,0,0,0,0,0,0,0,0,0,0,0,0,0,0,0,0,0,0,0,0,0,1.6898,1.6899,0,1.7035,1.7037,1.7038,1.7076,1.7075,1.7075,1.7074,1.7215,1.7219,1.7223,0,0,0,0,0,0,0,0,0,0,0,0,0,1.6667,1.6671,1.6898,1.6899,1.6901,1.7035,1.7037,1.7039,1.7076,1.7075,1.7074,1.7073,1.7213,1.7219,1.7224,0,0,0,0,0,0,0,0,0,0,0,0,0,1.6782,1.6672,1.6897,1.6936,1.6941,1.7035,1.7037,1.7039,1.7076,1.7075,1.7074,1.7073,1.7211,1.7218,1.7225,1.729,0,0,1.7245,1.7248,0,0,0,0,0,0,0,0,1.6775,1.679,1.6929,1.6933,1.6939,1.7037,1.7007,1.7123,1.7077,1.7025,1.7074,1.7072,1.7157,1.7168,1.7196,1.7296,1.7303,1.7246,1.725,1.7253,1.7255,0,0,0,0,0,0,0,1.6767,1.6785,1.6952,1.693,1.6937,1.6946,1.6961,1.7029,1.7096,1.7029,1.7032,1.7048,1.7159,1.719,1.72,1.7305,1.7246,1.7252,1.7256,1.7258,1.7464,1.7466,0,0,0,0,0,0,1.6753,1.6778,1.6948,1.6956,1.6853,1.6951,1.6968,1.7007,1.7095,1.7107,1.7049,1.7049,1.7179,1.7192,1.7205,1.7286,1.7253,1.7259,1.7263,1.7463,1.7465,1.7466,0,0,0,0,0,0,1.6748,1.6768,1.6942,1.6868,1.6891,1.6957,1.7,1.701,1.7041,1.711,1.7122,1.7068,1.7178,1.7195,1.7268,1.7292,1.7262,1.7268,1.7461,1.7464,1.7466,1.745,0,0,0,0,0,0,1.6741,1.6766,1.6791,1.6868,1.6895,1.7003,1.7001,1.7014,1.7052,1.7054,1.7131,1.7142,1.7179,1.7258,1.7275,1.73,1.7273,1.7459,1.7462,1.7465,1.7448,1.7451,1.7453,0,0,0,0,0,1.6733,1.6781,1.6792,1.6813,1.6928,1.7004,1.702,1.706,1.7054,1.708,1.7124,1.714,1.7286,1.7265,1.7285,1.7312,1.7458,1.7461,1.7465,1.7447,1.7451,1.7453,0,0,0,0,0,0,1.6706,1.6792,1.6805,1.6881,1.6935,1.7011,1.7045,1.7063,1.712,1.7119,1.7167,1.7184,1.7253,1.7291,1.7265,1.738,1.7373,1.738,1.7353,1.7356,1.7359,1.7348,1.7279,0,0,0,0,0,1.6708,1.6763,1.6836,1.6895,1.6922,1.6979,1.7014,1.704,1.7098,1.7121,1.7171,1.7227,1.7286,1.7323,1.7381,1.7454,1.7471,1.7483,1.7485,1.7487,1.7492,1.7533,1.7539,1.7477,1.7477,1.7477,0,0,1.6715,1.6769,1.6801,1.6891,1.6937,1.6992,1.6998,1.7056,1.7098,1.7131,1.7202,1.724,1.7306,1.7379,1.7413,1.7412,1.7513,1.7491,1.7492,1.7497,1.7537,1.7543,1.7548,1.7479,1.7479,1.7478,0,0,1.6754,1.6801,1.6855,1.69,1.6969,1.7006,1.7019,1.7092,1.7119,1.7191,1.7217,1.7267,1.7367,1.7412,1.7448,1.7505,1.7521,1.7522,1.7535,1.7574,1.7578,1.7583,1.7602,1.7608,1.7528,1.7528,1.7528,0,1.6753,1.6838,1.6881,1.6938,1.6977,1.7009,1.7064,1.7105,1.7189,1.7215,1.7212,1.7338,1.7384,1.7468,1.7481,1.751,1.7526,1.7513,1.7574,1.7579,1.7584,1.7603,1.761,1.7527,1.7527,1.7527,1.7527,0,1.6833,1.6891,1.6927,1.7006,1.7049,1.7105,1.7156,1.7194,1.7217,1.7255,1.7328,1.7385,1.7454,1.7476,1.7499,1.7563,1.7559,1.7565,1.7558,1.7589,1.7607,1.7615,1.7527,1.7527,1.7527,1.7527,0,0,1.6858,1.6961,1.6973,1.7009,1.7087,1.7133,1.719,1.7258,1.7289,1.7346,1.7394,1.7478,1.7483,1.7524,1.7553,1.7587,1.7627,1.7589,1.7591,1.7593,1.7699,1.7694,1.7701,1.7638,1.764,1.7641,1.7693,0,1.6907,1.701,1.705,1.7134,1.7187,1.7219,1.7268,1.7321,1.7358,1.7408,1.7449,1.7507,1.751,1.7535,1.757,1.7614,1.7649,1.7611,1.7683,1.7685,1.7665,1.7711,1.7706,1.7752,1.7701,1.7702,1.7703,0,1.6977,1.7034,1.7123,1.7193,1.7217,1.7261,1.7326,1.7375,1.7435,1.7459,1.7505,1.7531,1.7592,1.7582,1.7666,1.7639,1.7671,1.7697,1.77,1.7708,1.7695,1.7719,1.7768,1.7775,1.7715,1.7714,1.7713,0,1.6985,1.7084,1.715,1.718,1.7264,1.7294,1.7331,1.739,1.7428,1.7485,1.751,1.7573,1.7607,1.7656,1.7698,1.7688,1.7778,1.7772,1.7799,1.7798,1.7816,1.7814,1.787,1.7838,1.7838,1.7838,1.7837,0,1.7034,1.7087,1.7155,1.7195,1.7255,1.7301,1.7359,1.7398,1.745,1.7498,1.7529,1.7574,1.7628,1.7679,1.7713,1.7776,1.7792,1.7813,1.7821,1.781,1.7807,1.783,1.7828,1.7839,1.7839,1.7839,1.7838,0,1.7053,1.7101,1.7174,1.7248,1.7268,1.7309,1.7372,1.7412,1.745,1.751,1.7527,1.7587,1.7649,1.7696,1.7777,1.7799,1.7866,1.7876,1.7846,1.785,1.7874,1.787,1.7946,1.7958,1.7919,1.7919,1.7919,0,1.7081,1.7122,1.72,1.7235,1.7271,1.7326,1.7365,1.7411,1.745,1.7522,1.7553,1.7618,1.7671,1.7769,1.7819,1.7881,1.7891,1.7914,1.7901,1.7887,1.789,1.7887,1.7891,1.7915,1.7915,1.7915,1.7915,0,1.7124,1.7146,1.7201,1.7264,1.7309,1.7361,1.7413,1.744,1.7496,1.7538,1.7602,1.7643,1.7726,1.7789,1.7855,1.7893,1.7913,1.7919,1.7928,1.7917,1.7897,1.7907,1.7849,1.7917,1.7917,1.7917,1.7916,1.7916,1.7148,1.7186,1.7246,1.7306,1.7351,1.7399,1.744,1.7483,1.7537,1.7607,1.7632,1.7697,1.7756,1.7848,1.7886,1.7937,1.7938,1.7952,1.7955,1.7957,1.7956,1.7889,1.795,1.795,1.795,1.795,1.795,0,1.7192,1.7233,1.7287,1.736,1.7407,1.7422,1.7481,1.7519,1.7576,1.763,1.7682,1.7754,1.7816,1.7871,1.7934,1.7965,1.7976,1.798,1.7978,1.7986,1.7952,1.7937,1.797,1.797,1.797,1.797,1.797,1.797,1.722,1.7285,1.7314,1.7401,1.7441,1.7505,1.7537,1.7582,1.7625,1.7704,1.7755,1.7791,1.7845,1.7913,1.797,1.7984,1.8006,1.8007,1.8024,1.7991,1.7989,1.7986,1.7972,1.8012,1.8012,1.8054,1.8054,1.8054]},{"header":{"parameterUnit":"m.s-1","parameterCategory":1,"la1":30.2991,"la2":30.254,"lo1":-89.0895,"lo2":-89.0444,"dy":0.0017,"dx":0.0017,"nx":28,"ny":28,"refTime":"2023-07-21T09:00:00:Z","depth":0,"parameterNumber":3,"parameterNumberName":"V-component_of_WINDS"},"data":[0,0,0,0,0,0,0,0,0,0,0,0,0,0,0,0,0,0,0,0,0,0,0,0,0,0,0,0,0,0,0,0,0,0,0,0,0,0,0,0,0,0,0,0,0,0,0,0,0,0,0,0,0,0,0,0,0,0,4.6993,4.6993,0,4.6934,4.6933,4.6932,4.6835,4.6833,4.6831,4.6829,4.6769,4.6769,4.6769,0,0,0,0,0,0,0,0,0,0,0,0,0,4.7024,4.7024,4.6993,4.6993,4.6992,4.6934,4.6933,4.6932,4.6835,4.6833,4.6831,4.6829,4.6769,4.6769,4.6769,0,0,0,0,0,0,0,0,0,0,0,0,0,4.6992,4.7024,4.6993,4.6936,4.6931,4.6934,4.6933,4.6932,4.6835,4.6833,4.683,4.6828,4.6769,4.6769,4.6769,4.6823,0,0,4.6769,4.6769,0,0,0,0,0,0,0,0,4.6994,4.6991,4.6945,4.694,4.6934,4.6889,4.6921,4.6895,4.6836,4.6872,4.6829,4.6826,4.6811,4.6807,4.6802,4.682,4.6817,4.6769,4.6769,4.6769,4.6769,0,0,0,0,0,0,0,4.6996,4.6993,4.697,4.6945,4.6938,4.6914,4.6906,4.6916,4.6857,4.6868,4.6861,4.6855,4.6807,4.6802,4.68,4.6816,4.6769,4.6769,4.6769,4.6769,4.6876,4.6879,0,0,0,0,0,0,4.7007,4.6996,4.6971,4.6968,4.6958,4.6916,4.6907,4.6906,4.6857,4.6846,4.6858,4.6851,4.6803,4.68,4.6797,4.6857,4.6769,4.6769,4.6769,4.6873,4.6877,4.688,0,0,0,0,0,0,4.7008,4.7006,4.6974,4.698,4.6974,4.6918,4.6917,4.6906,4.6901,4.6849,4.6838,4.6863,4.6801,4.6797,4.6817,4.6854,4.6769,4.6769,4.687,4.6874,4.6878,4.6978,0,0,0,0,0,0,4.7009,4.7007,4.7027,4.6981,4.6974,4.6995,4.692,4.6907,4.6901,4.6892,4.6851,4.6842,4.6799,4.6818,4.6817,4.6852,4.6769,4.6866,4.6872,4.6877,4.6972,4.6986,4.6998,0,0,0,0,0,4.7011,4.7057,4.7028,4.7026,4.6998,4.6997,4.6993,4.6943,4.6905,4.6924,4.6891,4.6843,4.685,4.6821,4.6819,4.6855,4.6864,4.687,4.6877,4.6966,4.6983,4.6997,0,0,0,0,0,0,4.7108,4.705,4.7017,4.705,4.7029,4.6981,4.7004,4.6962,4.6952,4.6944,4.6882,4.6873,4.6902,4.688,4.6848,4.6905,4.685,4.6856,4.6918,4.6934,4.6946,4.6951,4.6769,0,0,0,0,0,4.7134,4.7138,4.7087,4.7121,4.7112,4.7061,4.7058,4.7021,4.6997,4.6988,4.6956,4.6935,4.6932,4.6932,4.6926,4.6968,4.6958,4.6992,4.7005,4.7016,4.7022,4.7043,4.7058,4.6901,4.69,4.69,0,0,4.7186,4.7155,4.7161,4.714,4.712,4.7126,4.7054,4.7063,4.7067,4.699,4.7006,4.6983,4.6955,4.6986,4.6998,4.6969,4.7064,4.7024,4.7033,4.7033,4.7051,4.7066,4.7079,4.6905,4.6904,4.6903,0,0,4.7285,4.7262,4.7287,4.7269,4.7239,4.7204,4.7211,4.7168,4.7149,4.7165,4.7107,4.7112,4.7108,4.7091,4.7082,4.7175,4.7131,4.7175,4.7243,4.7264,4.7276,4.7287,4.732,4.7333,4.7181,4.7182,4.7182,0,4.7354,4.7361,4.7306,4.732,4.7312,4.7242,4.7268,4.7252,4.7223,4.7219,4.7187,4.7182,4.7158,4.7185,4.7208,4.7202,4.7208,4.7179,4.7279,4.7289,4.7298,4.7329,4.7342,4.7187,4.7187,4.7186,4.7186,0,4.7447,4.7453,4.7478,4.7451,4.7446,4.7466,4.7414,4.7416,4.738,4.7349,4.7366,4.7336,4.7323,4.7326,4.7291,4.7348,4.7331,4.729,4.7233,4.732,4.7348,4.7359,4.7195,4.7193,4.7192,4.719,0,0,4.7605,4.7548,4.7558,4.7545,4.7507,4.7511,4.7528,4.7516,4.7519,4.7501,4.7513,4.7513,4.7474,4.7464,4.7426,4.7445,4.7521,4.7401,4.7399,4.7424,4.7582,4.7614,4.7629,4.7492,4.7494,4.7495,4.7585,0,4.7696,4.7721,4.7673,4.771,4.7715,4.7649,4.7664,4.7643,4.7614,4.7614,4.7582,4.7583,4.7532,4.7526,4.7541,4.7509,4.7552,4.7501,4.7503,4.7504,4.7512,4.7643,4.7676,4.7762,4.7596,4.7597,4.7599,0,4.7805,4.7793,4.7831,4.7791,4.7791,4.7805,4.7791,4.7792,4.7766,4.7744,4.7734,4.7689,4.7703,4.7649,4.7667,4.7634,4.7632,4.7616,4.7618,4.7616,4.7557,4.7645,4.7788,4.7802,4.7616,4.7614,4.7613,0,4.7917,4.791,4.7931,4.7922,4.7877,4.7888,4.787,4.7842,4.7838,4.7825,4.7822,4.7811,4.7805,4.7798,4.7752,4.7717,4.7777,4.7718,4.7759,4.776,4.7774,4.7774,4.7919,4.7773,4.7773,4.7773,4.7772,0,4.8023,4.8049,4.7981,4.7994,4.8021,4.7966,4.7994,4.7969,4.7945,4.7952,4.7895,4.7903,4.7842,4.7844,4.7808,4.7829,4.7827,4.7809,4.78,4.7815,4.7817,4.7812,4.7805,4.7776,4.7775,4.7775,4.7774,0,4.8152,4.8108,4.8127,4.8083,4.8072,4.8094,4.8056,4.8067,4.8035,4.8045,4.8044,4.7994,4.7994,4.7947,4.7936,4.7912,4.7949,4.7928,4.7957,4.7951,4.7994,4.7991,4.8142,4.8159,4.8002,4.8004,4.8005,0,4.8223,4.8241,4.8199,4.82,4.8185,4.8187,4.8182,4.8129,4.8127,4.81,4.8114,4.8109,4.8101,4.8103,4.8066,4.8058,4.8036,4.809,4.8035,4.8049,4.8037,4.8037,4.8039,4.8102,4.8104,4.8105,4.8106,0,4.8354,4.8331,4.8327,4.8316,4.8312,4.8301,4.8285,4.829,4.8231,4.8231,4.823,4.8225,4.8214,4.8209,4.8195,4.8175,4.8132,4.8124,4.8133,4.8149,4.8165,4.8157,4.7989,4.8121,4.8119,4.8118,4.8118,4.8117,4.8456,4.8469,4.8442,4.8439,4.8422,4.841,4.8418,4.8387,4.8385,4.8372,4.834,4.8345,4.8319,4.8295,4.828,4.8282,4.8255,4.8268,4.8271,4.8276,4.8284,4.8165,4.8279,4.8279,4.8278,4.8278,4.8277,0,4.8583,4.8563,4.8561,4.8542,4.854,4.8499,4.848,4.8482,4.8486,4.8466,4.846,4.8459,4.8455,4.8417,4.8409,4.8418,4.8398,4.8417,4.8416,4.8413,4.8309,4.8302,4.8434,4.8434,4.8434,4.8434,4.8434,4.8434,4.865,4.867,4.8644,4.8656,4.8635,4.8638,4.8631,4.862,4.8603,4.8605,4.8601,4.8577,4.855,4.8539,4.8533,4.8522,4.8522,4.8549,4.8531,4.8435,4.842,4.8405,4.8399,4.8549,4.8549,4.8635,4.8636,4.8636]}]]